Time,TemperatureF,DewpointF,PressureIn,WindDirection,WindDirectionDegrees,WindSpeedMPH,WindSpeedGustMPH,Humidity,HourlyPrecipIn,Conditions,Clouds,dailyrainin,SoftwareType,DateUTC
2013-11-04 00:03:00,59.2,37.9,29.70,NE,45,0.0,-999.0,45,0.00,,,0.00,Wunderground v.1.15,2013-11-04 07:03:00,
2013-11-04 00:08:00,58.9,38.1,29.70,NE,45,1.0,-999.0,46,0.00,,,0.00,Wunderground v.1.15,2013-11-04 07:08:00,
2013-11-04 00:13:00,59.3,38.5,29.70,North,0,0.0,-999.0,46,0.00,,,0.00,Wunderground v.1.15,2013-11-04 07:13:00,
2013-11-04 00:18:00,59.2,38.4,29.71,N/A,-737280,0.0,-999.0,46,0.00,,,0.00,Wunderground v.1.15,2013-11-04 07:18:00,
2013-11-04 00:23:00,58.8,38.6,29.71,N/A,-737280,0.0,-999.0,47,0.00,,,0.00,Wunderground v.1.15,2013-11-04 07:23:00,
2013-11-04 00:28:00,59.0,38.8,29.70,North,0,1.0,-999.0,47,0.00,,,0.00,Wunderground v.1.15,2013-11-04 07:28:00,
2013-11-04 00:33:00,59.3,41.2,29.70,NNW,338,0.0,-999.0,51,0.00,,,0.00,Wunderground v.1.15,2013-11-04 07:33:00,
2013-11-04 00:38:00,59.3,39.1,29.70,N/A,-737280,0.0,-999.0,47,0.00,,,0.00,Wunderground v.1.15,2013-11-04 07:38:00,
2013-11-04 00:43:00,59.5,38.7,29.70,NNW,338,0.0,-999.0,46,0.00,,,0.00,Wunderground v.1.15,2013-11-04 07:43:00,
2013-11-04 00:48:00,59.4,36.3,29.70,NNW,338,1.0,-999.0,42,0.00,,,0.00,Wunderground v.1.15,2013-11-04 07:48:00,
2013-11-04 00:53:00,60.0,35.0,29.70,NW,315,1.0,-999.0,39,0.00,,,0.00,Wunderground v.1.15,2013-11-04 07:53:00,
2013-11-04 00:58:00,58.8,37.5,29.70,East,90,1.0,-999.0,45,0.00,,,0.00,Wunderground v.1.15,2013-11-04 07:58:00,
2013-11-04 01:03:00,56.8,39.8,29.70,East,90,1.0,-999.0,53,0.00,,,0.00,Wunderground v.1.15,2013-11-04 08:03:00,
2013-11-04 01:08:00,56.3,37.9,29.70,East,90,1.0,-999.0,50,0.00,,,0.00,Wunderground v.1.15,2013-11-04 08:08:00,
2013-11-04 01:13:00,54.5,38.7,29.70,East,90,1.0,-999.0,55,0.00,,,0.00,Wunderground v.1.15,2013-11-04 08:13:00,
2013-11-04 01:18:00,53.8,39.4,29.70,NNE,23,0.0,-999.0,58,0.00,,,0.00,Wunderground v.1.15,2013-11-04 08:18:00,
2013-11-04 01:23:00,54.1,37.8,29.70,NNE,23,1.0,-999.0,54,0.00,,,0.00,Wunderground v.1.15,2013-11-04 08:23:00,
2013-11-04 01:28:00,54.8,39.8,29.70,SW,225,0.0,-999.0,57,0.00,,,0.00,Wunderground v.1.15,2013-11-04 08:28:00,
2013-11-04 01:33:00,54.7,38.8,29.70,SW,225,0.0,-999.0,55,0.00,,,0.00,Wunderground v.1.15,2013-11-04 08:33:00,
2013-11-04 01:38:00,54.4,37.6,29.70,N/A,-737280,0.0,-999.0,53,0.00,,,0.00,Wunderground v.1.15,2013-11-04 08:38:00,
2013-11-04 01:43:00,55.0,39.6,29.70,NNW,338,1.0,-999.0,56,0.00,,,0.00,Wunderground v.1.15,2013-11-04 08:43:00,
2013-11-04 01:48:00,55.9,35.9,29.69,NNE,23,1.0,-999.0,47,0.00,,,0.00,Wunderground v.1.15,2013-11-04 08:48:00,
2013-11-04 01:53:00,56.1,36.7,29.70,NNE,23,0.0,-999.0,48,0.00,,,0.00,Wunderground v.1.15,2013-11-04 08:53:00,
2013-11-04 01:58:00,56.6,34.9,29.69,NNW,338,1.0,-999.0,44,0.00,,,0.00,Wunderground v.1.15,2013-11-04 08:58:00,
2013-11-04 02:03:00,54.5,36.7,29.69,East,90,1.0,-999.0,51,0.00,,,0.00,Wunderground v.1.15,2013-11-04 09:03:00,
2013-11-04 02:08:00,54.7,36.4,29.69,North,0,1.0,-999.0,50,0.00,,,0.00,Wunderground v.1.15,2013-11-04 09:08:00,
2013-11-04 02:13:00,54.5,35.2,29.69,NE,45,2.0,-999.0,48,0.00,,,0.00,Wunderground v.1.15,2013-11-04 09:13:00,
2013-11-04 02:18:00,53.6,34.9,29.69,ENE,68,0.0,-999.0,49,0.00,,,0.00,Wunderground v.1.15,2013-11-04 09:18:00,
2013-11-04 02:23:00,53.7,37.0,29.69,N/A,-737280,0.0,-999.0,53,0.00,,,0.00,Wunderground v.1.15,2013-11-04 09:23:00,
2013-11-04 02:28:00,54.3,34.5,29.69,ENE,68,0.0,-999.0,47,0.00,,,0.00,Wunderground v.1.15,2013-11-04 09:28:00,
2013-11-04 02:33:00,55.4,34.9,29.68,NNW,338,1.0,-999.0,46,0.00,,,0.00,Wunderground v.1.15,2013-11-04 09:33:00,
2013-11-04 02:38:00,55.7,35.2,29.68,N/A,-737280,0.0,-999.0,46,0.00,,,0.00,Wunderground v.1.15,2013-11-04 09:38:00,
2013-11-04 02:43:00,56.2,36.2,29.68,WNW,293,1.0,-999.0,47,0.00,,,0.00,Wunderground v.1.15,2013-11-04 09:43:00,
2013-11-04 02:48:00,56.6,37.6,29.68,WNW,293,1.0,-999.0,49,0.00,,,0.00,Wunderground v.1.15,2013-11-04 09:48:00,
2013-11-04 02:53:00,56.8,37.3,29.68,West,270,0.0,-999.0,48,0.00,,,0.00,Wunderground v.1.15,2013-11-04 09:53:00,
2013-11-04 02:58:00,56.3,36.3,29.68,West,270,0.0,-999.0,47,0.00,,,0.00,Wunderground v.1.15,2013-11-04 09:58:00,
2013-11-04 03:03:00,55.1,35.7,29.68,West,270,0.0,-999.0,48,0.00,,,0.00,Wunderground v.1.15,2013-11-04 10:03:00,
2013-11-04 03:08:00,52.9,39.0,29.68,N/A,-737280,0.0,-999.0,59,0.00,,,0.00,Wunderground v.1.15,2013-11-04 10:08:00,
2013-11-04 03:13:00,51.7,38.3,29.68,N/A,-737280,0.0,-999.0,60,0.00,,,0.00,Wunderground v.1.15,2013-11-04 10:13:00,
2013-11-04 03:18:00,51.1,38.9,29.68,West,270,0.0,-999.0,63,0.00,,,0.00,Wunderground v.1.15,2013-11-04 10:18:00,
2013-11-04 03:23:00,51.3,37.0,29.68,N/A,-737280,0.0,-999.0,58,0.00,,,0.00,Wunderground v.1.15,2013-11-04 10:23:00,
2013-11-04 03:28:00,52.0,37.7,29.68,West,270,0.0,-999.0,58,0.00,,,0.00,Wunderground v.1.15,2013-11-04 10:28:00,
2013-11-04 03:33:00,51.9,40.1,29.68,West,270,0.0,-999.0,64,0.00,,,0.00,Wunderground v.1.15,2013-11-04 10:33:00,
2013-11-04 03:38:00,52.0,38.5,29.68,N/A,-737280,0.0,-999.0,60,0.00,,,0.00,Wunderground v.1.15,2013-11-04 10:38:00,
2013-11-04 03:43:00,51.7,36.9,29.67,N/A,-737280,0.0,-999.0,57,0.00,,,0.00,Wunderground v.1.15,2013-11-04 10:43:00,
2013-11-04 03:48:00,51.5,36.8,29.68,N/A,-737280,0.0,-999.0,57,0.00,,,0.00,Wunderground v.1.15,2013-11-04 10:48:00,
2013-11-04 03:53:00,51.4,38.4,29.68,N/A,-737280,0.0,-999.0,61,0.00,,,0.00,Wunderground v.1.15,2013-11-04 10:53:00,
2013-11-04 03:58:00,51.2,38.6,29.68,N/A,-737280,0.0,-999.0,62,0.00,,,0.00,Wunderground v.1.15,2013-11-04 10:58:00,
2013-11-04 04:03:00,51.2,39.8,29.68,N/A,-737280,0.0,-999.0,65,0.00,,,0.00,Wunderground v.1.15,2013-11-04 11:03:00,
2013-11-04 04:08:00,51.6,42.9,29.68,N/A,-737280,0.0,-999.0,72,0.00,,,0.00,Wunderground v.1.15,2013-11-04 11:08:00,
2013-11-04 04:13:00,52.1,42.6,29.68,N/A,-737280,0.0,-999.0,70,0.00,,,0.00,Wunderground v.1.15,2013-11-04 11:13:00,
2013-11-04 04:18:00,53.5,38.6,29.68,NW,315,2.0,-999.0,57,0.00,,,0.00,Wunderground v.1.15,2013-11-04 11:18:00,
2013-11-04 04:23:00,54.8,38.5,29.68,NW,315,2.0,-999.0,54,0.00,,,0.00,Wunderground v.1.15,2013-11-04 11:23:00,
2013-11-04 04:28:00,55.1,37.8,29.68,NW,315,2.0,-999.0,52,0.00,,,0.00,Wunderground v.1.15,2013-11-04 11:28:00,
2013-11-04 04:33:00,55.0,37.2,29.69,NW,315,3.0,-999.0,51,0.00,,,0.00,Wunderground v.1.15,2013-11-04 11:33:00,
2013-11-04 04:38:00,55.0,36.7,29.68,NW,315,3.0,-999.0,50,0.00,,,0.00,Wunderground v.1.15,2013-11-04 11:38:00,
2013-11-04 04:43:00,55.0,36.2,29.69,NW,315,3.0,-999.0,49,0.00,,,0.00,Wunderground v.1.15,2013-11-04 11:43:00,
2013-11-04 04:48:00,54.9,36.1,29.69,NW,315,3.0,-999.0,49,0.00,,,0.00,Wunderground v.1.15,2013-11-04 11:48:00,
2013-11-04 04:53:00,53.6,36.4,29.69,East,90,1.0,-999.0,52,0.00,,,0.00,Wunderground v.1.15,2013-11-04 11:53:00,
2013-11-04 04:58:00,51.9,36.7,29.69,East,90,0.0,-999.0,56,0.00,,,0.00,Wunderground v.1.15,2013-11-04 11:58:00,
2013-11-04 05:03:00,51.5,38.1,29.69,N/A,-737280,0.0,-999.0,60,0.00,,,0.00,Wunderground v.1.15,2013-11-04 12:03:00,
2013-11-04 05:08:00,51.4,38.0,29.69,N/A,-737280,0.0,-999.0,60,0.00,,,0.00,Wunderground v.1.15,2013-11-04 12:08:00,
2013-11-04 05:13:00,52.4,39.3,29.69,North,0,0.0,-999.0,61,0.00,,,0.00,Wunderground v.1.15,2013-11-04 12:13:00,
2013-11-04 05:18:00,53.4,37.6,29.69,North,0,1.0,-999.0,55,0.00,,,0.00,Wunderground v.1.15,2013-11-04 12:18:00,
2013-11-04 05:23:00,54.2,39.7,29.69,NNW,338,0.0,-999.0,58,0.00,,,0.00,Wunderground v.1.15,2013-11-04 12:23:00,
2013-11-04 05:28:00,54.6,38.3,29.69,NNW,338,0.0,-999.0,54,0.00,,,0.00,Wunderground v.1.15,2013-11-04 12:28:00,
2013-11-04 05:33:00,55.0,37.7,29.69,NW,315,2.0,-999.0,52,0.00,,,0.00,Wunderground v.1.15,2013-11-04 12:33:00,
2013-11-04 05:38:00,55.1,36.8,29.69,NW,315,2.0,-999.0,50,0.00,,,0.00,Wunderground v.1.15,2013-11-04 12:38:00,
2013-11-04 05:43:00,55.1,36.8,29.69,NW,315,3.0,-999.0,50,0.00,,,0.00,Wunderground v.1.15,2013-11-04 12:43:00,
2013-11-04 05:48:00,54.9,36.1,29.69,NW,315,1.0,-999.0,49,0.00,,,0.00,Wunderground v.1.15,2013-11-04 12:48:00,
2013-11-04 06:03:00,54.2,36.5,29.69,N/A,-737280,0.0,-999.0,51,0.00,,,0.00,Wunderground v.1.15,2013-11-04 13:03:00,
2013-11-04 06:08:00,54.2,36.9,29.69,N/A,-737280,0.0,-999.0,52,0.00,,,0.00,Wunderground v.1.15,2013-11-04 13:08:00,
2013-11-04 06:13:00,53.8,37.1,29.69,N/A,-737280,0.0,-999.0,53,0.00,,,0.00,Wunderground v.1.15,2013-11-04 13:13:00,
2013-11-04 06:18:00,53.3,37.1,29.70,N/A,-737280,0.0,-999.0,54,0.00,,,0.00,Wunderground v.1.15,2013-11-04 13:18:00,
2013-11-04 06:23:00,51.7,36.9,29.70,SE,135,0.0,-999.0,57,0.00,,,0.00,Wunderground v.1.15,2013-11-04 13:23:00,
2013-11-04 06:28:00,50.4,36.6,29.70,N/A,-737280,0.0,-999.0,59,0.00,,,0.00,Wunderground v.1.15,2013-11-04 13:28:00,
2013-11-04 06:33:00,49.4,37.7,29.70,SE,135,0.0,-999.0,64,0.00,,,0.00,Wunderground v.1.15,2013-11-04 13:33:00,
2013-11-04 06:38:00,48.7,37.8,29.70,N/A,-737280,0.0,-999.0,66,0.00,,,0.00,Wunderground v.1.15,2013-11-04 13:38:00,
2013-11-04 06:43:00,48.1,36.9,29.70,N/A,-737280,0.0,-999.0,65,0.00,,,0.00,Wunderground v.1.15,2013-11-04 13:43:00,
2013-11-04 06:48:00,48.3,36.3,29.70,NE,45,1.0,-999.0,63,0.00,,,0.00,Wunderground v.1.15,2013-11-04 13:48:00,
2013-11-04 06:53:00,49.7,37.6,29.70,NNE,23,1.0,-999.0,63,0.00,,,0.00,Wunderground v.1.15,2013-11-04 13:53:00,
2013-11-04 06:58:00,50.3,37.4,29.71,NNE,23,0.0,-999.0,61,0.00,,,0.00,Wunderground v.1.15,2013-11-04 13:58:00,
2013-11-04 07:03:00,50.9,38.3,29.71,NNW,338,1.0,-999.0,62,0.00,,,0.00,Wunderground v.1.15,2013-11-04 14:03:00,
2013-11-04 07:08:00,51.5,37.2,29.71,NW,315,2.0,-999.0,58,0.00,,,0.00,Wunderground v.1.15,2013-11-04 14:08:00,
2013-11-04 07:13:00,52.3,36.1,29.71,NW,315,3.0,-999.0,54,0.00,,,0.00,Wunderground v.1.15,2013-11-04 14:13:00,
2013-11-04 07:18:00,52.9,35.7,29.71,NW,315,2.0,-999.0,52,0.00,,,0.00,Wunderground v.1.15,2013-11-04 14:18:00,
2013-11-04 07:23:00,53.5,36.3,29.71,NW,315,0.0,-999.0,52,0.00,,,0.00,Wunderground v.1.15,2013-11-04 14:23:00,
2013-11-04 07:28:00,53.3,37.1,29.72,N/A,-737280,0.0,-999.0,54,0.00,,,0.00,Wunderground v.1.15,2013-11-04 14:28:00,
2013-11-04 07:33:00,53.4,37.2,29.72,N/A,-737280,0.0,-999.0,54,0.00,,,0.00,Wunderground v.1.15,2013-11-04 14:33:00,
2013-11-04 07:38:00,54.3,36.5,29.72,North,0,0.0,-999.0,51,0.00,,,0.00,Wunderground v.1.15,2013-11-04 14:38:00,
2013-11-04 07:43:00,55.3,37.0,29.72,WNW,293,1.0,-999.0,50,0.00,,,0.00,Wunderground v.1.15,2013-11-04 14:43:00,
2013-11-04 07:48:00,56.0,36.6,29.73,NW,315,2.0,-999.0,48,0.00,,,0.00,Wunderground v.1.15,2013-11-04 14:48:00,
2013-11-04 07:53:00,56.7,36.7,29.73,NW,315,2.0,-999.0,47,0.00,,,0.00,Wunderground v.1.15,2013-11-04 14:53:00,
2013-11-04 07:58:00,57.4,37.3,29.73,NW,315,2.0,-999.0,47,0.00,,,0.00,Wunderground v.1.15,2013-11-04 14:58:00,
2013-11-04 08:03:00,57.9,37.2,29.73,NW,315,2.0,-999.0,46,0.00,,,0.00,Wunderground v.1.15,2013-11-04 15:03:00,
2013-11-04 08:08:00,58.7,38.5,29.73,NW,315,1.0,-999.0,47,0.00,,,0.00,Wunderground v.1.15,2013-11-04 15:08:00,
2013-11-04 08:13:00,59.6,40.9,29.73,NW,315,0.0,-999.0,50,0.00,,,0.00,Wunderground v.1.15,2013-11-04 15:13:00,
2013-11-04 08:18:00,61.1,40.1,29.74,N/A,-737280,0.0,-999.0,46,0.00,,,0.00,Wunderground v.1.15,2013-11-04 15:18:00,
2013-11-04 08:23:00,63.0,46.1,29.74,ESE,113,0.0,-999.0,54,0.00,,,0.00,Wunderground v.1.15,2013-11-04 15:23:00,
2013-11-04 08:28:00,64.4,47.4,29.74,N/A,-737280,0.0,-999.0,54,0.00,,,0.00,Wunderground v.1.15,2013-11-04 15:28:00,
2013-11-04 08:33:00,64.7,49.6,29.74,SE,135,1.0,-999.0,58,0.00,,,0.00,Wunderground v.1.15,2013-11-04 15:33:00,
2013-11-04 08:38:00,64.2,50.9,29.75,SE,135,2.0,-999.0,62,0.00,,,0.00,Wunderground v.1.15,2013-11-04 15:38:00,
2013-11-04 08:43:00,63.2,51.6,29.75,ESE,113,2.0,-999.0,66,0.00,,,0.00,Wunderground v.1.15,2013-11-04 15:43:00,
2013-11-04 08:48:00,63.4,51.4,29.75,SSE,158,1.0,-999.0,65,0.00,,,0.00,Wunderground v.1.15,2013-11-04 15:48:00,
2013-11-04 08:53:00,63.8,51.0,29.75,SE,135,1.0,-999.0,63,0.00,,,0.00,Wunderground v.1.15,2013-11-04 15:53:00,
2013-11-04 08:58:00,64.6,51.3,29.76,SSE,158,0.0,-999.0,62,0.00,,,0.00,Wunderground v.1.15,2013-11-04 15:58:00,
2013-11-04 09:03:00,65.7,51.0,29.76,N/A,-737280,0.0,-999.0,59,0.00,,,0.00,Wunderground v.1.15,2013-11-04 16:03:00,
2013-11-04 09:08:00,66.0,50.8,29.76,N/A,-737280,0.0,-999.0,58,0.00,,,0.00,Wunderground v.1.15,2013-11-04 16:08:00,
2013-11-04 09:13:00,67.3,51.5,29.76,N/A,-737280,0.0,-999.0,57,0.00,,,0.00,Wunderground v.1.15,2013-11-04 16:13:00,
2013-11-04 09:18:00,67.6,51.3,29.76,SSE,158,0.0,-999.0,56,0.00,,,0.00,Wunderground v.1.15,2013-11-04 16:18:00,
2013-11-04 09:23:00,67.1,51.8,29.76,SW,225,0.0,-999.0,58,0.00,,,0.00,Wunderground v.1.15,2013-11-04 16:23:00,
2013-11-04 09:28:00,67.1,52.7,29.76,SW,225,1.0,-999.0,60,0.00,,,0.00,Wunderground v.1.15,2013-11-04 16:28:00,
2013-11-04 09:33:00,66.2,52.8,29.76,SW,225,1.0,-999.0,62,0.00,,,0.00,Wunderground v.1.15,2013-11-04 16:33:00,
2013-11-04 09:38:00,66.1,52.7,29.76,SW,225,1.0,-999.0,62,0.00,,,0.00,Wunderground v.1.15,2013-11-04 16:38:00,
2013-11-04 09:43:00,66.5,52.6,29.76,SW,225,1.0,-999.0,61,0.00,,,0.00,Wunderground v.1.15,2013-11-04 16:43:00,
2013-11-04 09:48:00,66.4,52.5,29.75,SW,225,1.0,-999.0,61,0.00,,,0.00,Wunderground v.1.15,2013-11-04 16:48:00,
2013-11-04 09:53:00,66.7,52.8,29.76,SW,225,1.0,-999.0,61,0.00,,,0.00,Wunderground v.1.15,2013-11-04 16:53:00,
2013-11-04 09:58:00,67.1,52.7,29.75,West,270,0.0,-999.0,60,0.00,,,0.00,Wunderground v.1.15,2013-11-04 16:58:00,
2013-11-04 10:03:00,67.5,53.6,29.75,SW,225,0.0,-999.0,61,0.00,,,0.00,Wunderground v.1.15,2013-11-04 17:03:00,
2013-11-04 10:08:00,68.0,54.0,29.75,East,90,1.0,-999.0,61,0.00,,,0.00,Wunderground v.1.15,2013-11-04 17:08:00,
2013-11-04 10:13:00,68.3,53.9,29.76,SE,135,2.0,-999.0,60,0.00,,,0.00,Wunderground v.1.15,2013-11-04 17:13:00,
2013-11-04 10:18:00,68.6,55.1,29.76,SSW,203,1.0,-999.0,62,0.00,,,0.00,Wunderground v.1.15,2013-11-04 17:18:00,
2013-11-04 10:23:00,69.2,55.2,29.76,SE,135,1.0,-999.0,61,0.00,,,0.00,Wunderground v.1.15,2013-11-04 17:23:00,
2013-11-04 10:28:00,69.6,55.6,29.76,SE,135,2.0,-999.0,61,0.00,,,0.00,Wunderground v.1.15,2013-11-04 17:28:00,
2013-11-04 10:33:00,69.7,55.2,29.76,ESE,113,3.0,-999.0,60,0.00,,,0.00,Wunderground v.1.15,2013-11-04 17:33:00,
2013-11-04 10:38:00,69.8,55.7,29.76,East,90,2.0,-999.0,61,0.00,,,0.00,Wunderground v.1.15,2013-11-04 17:38:00,
2013-11-04 10:43:00,69.6,54.6,29.75,SW,225,3.0,-999.0,59,0.00,,,0.00,Wunderground v.1.15,2013-11-04 17:43:00,
2013-11-04 10:48:00,69.8,54.8,29.75,WSW,248,1.0,-999.0,59,0.00,,,0.00,Wunderground v.1.15,2013-11-04 17:48:00,
2013-11-04 10:53:00,70.8,53.3,29.76,South,180,1.0,-999.0,54,0.00,,,0.00,Wunderground v.1.15,2013-11-04 17:53:00,
2013-11-04 10:58:00,72.1,51.3,29.76,South,180,1.0,-999.0,48,0.00,,,0.00,Wunderground v.1.15,2013-11-04 17:58:00,
2013-11-04 11:03:00,72.3,47.9,29.76,SW,225,2.0,-999.0,42,0.00,,,0.00,Wunderground v.1.15,2013-11-04 18:03:00,
2013-11-04 11:08:00,71.9,48.8,29.75,SW,225,1.0,-999.0,44,0.00,,,0.00,Wunderground v.1.15,2013-11-04 18:08:00,
2013-11-04 11:13:00,72.2,49.1,29.75,SE,135,1.0,-999.0,44,0.00,,,0.00,Wunderground v.1.15,2013-11-04 18:13:00,
2013-11-04 11:18:00,72.7,48.3,29.75,SSE,158,1.0,-999.0,42,0.00,,,0.00,Wunderground v.1.15,2013-11-04 18:18:00,
2013-11-04 11:23:00,73.4,49.5,29.75,SW,225,0.0,-999.0,43,0.00,,,0.00,Wunderground v.1.15,2013-11-04 18:23:00,
2013-11-04 11:28:00,73.8,48.6,29.74,SSW,203,2.0,-999.0,41,0.00,,,0.00,Wunderground v.1.15,2013-11-04 18:28:00,
2013-11-04 11:33:00,74.7,48.1,29.74,SE,135,1.0,-999.0,39,0.00,,,0.00,Wunderground v.1.15,2013-11-04 18:33:00,
2013-11-04 11:38:00,74.5,46.5,29.73,WSW,248,2.0,-999.0,37,0.00,,,0.00,Wunderground v.1.15,2013-11-04 18:38:00,
2013-11-04 11:43:00,73.9,46.0,29.73,West,270,2.0,-999.0,37,0.00,,,0.00,Wunderground v.1.15,2013-11-04 18:43:00,
2013-11-04 11:48:00,73.7,45.1,29.73,West,270,2.0,-999.0,36,0.00,,,0.00,Wunderground v.1.15,2013-11-04 18:48:00,
2013-11-04 11:53:00,74.2,44.8,29.72,WNW,293,2.0,-999.0,35,0.00,,,0.00,Wunderground v.1.15,2013-11-04 18:53:00,
2013-11-04 11:58:00,74.0,44.6,29.72,West,270,2.0,-999.0,35,0.00,,,0.00,Wunderground v.1.15,2013-11-04 18:58:00,
2013-11-04 12:03:00,74.7,44.5,29.71,WNW,293,1.0,-999.0,34,0.00,,,0.00,Wunderground v.1.15,2013-11-04 19:03:00,
2013-11-04 12:08:00,74.8,46.1,29.72,SW,225,2.0,-999.0,36,0.00,,,0.00,Wunderground v.1.15,2013-11-04 19:08:00,
2013-11-04 12:13:00,75.1,46.3,29.71,SW,225,2.0,-999.0,36,0.00,,,0.00,Wunderground v.1.15,2013-11-04 19:13:00,
2013-11-04 12:18:00,75.7,46.8,29.71,South,180,3.0,-999.0,36,0.00,,,0.00,Wunderground v.1.15,2013-11-04 19:18:00,
2013-11-04 12:23:00,75.6,46.0,29.71,ESE,113,3.0,-999.0,35,0.00,,,0.00,Wunderground v.1.15,2013-11-04 19:23:00,
2013-11-04 12:28:00,75.9,44.7,29.70,WSW,248,2.0,-999.0,33,0.00,,,0.00,Wunderground v.1.15,2013-11-04 19:28:00,
2013-11-04 12:33:00,76.1,44.1,29.70,SSW,203,2.0,-999.0,32,0.00,,,0.00,Wunderground v.1.15,2013-11-04 19:33:00,
2013-11-04 12:38:00,76.7,42.9,29.70,SSE,158,2.0,-999.0,30,0.00,,,0.00,Wunderground v.1.15,2013-11-04 19:38:00,
2013-11-04 12:43:00,77.1,44.1,29.70,South,180,3.0,-999.0,31,0.00,,,0.00,Wunderground v.1.15,2013-11-04 19:43:00,
2013-11-04 12:48:00,77.0,43.2,29.70,SW,225,4.0,-999.0,30,0.00,,,0.00,Wunderground v.1.15,2013-11-04 19:48:00,
2013-11-04 12:53:00,77.3,42.6,29.70,SSE,158,3.0,-999.0,29,0.00,,,0.00,Wunderground v.1.15,2013-11-04 19:53:00,
2013-11-04 12:58:00,77.4,42.6,29.69,ENE,68,2.0,-999.0,29,0.00,,,0.00,Wunderground v.1.15,2013-11-04 19:58:00,
2013-11-04 13:03:00,77.6,42.8,29.69,SE,135,3.0,-999.0,29,0.00,,,0.00,Wunderground v.1.15,2013-11-04 20:03:00,
2013-11-04 13:08:00,77.8,41.1,29.69,SSE,158,4.0,-999.0,27,0.00,,,0.00,Wunderground v.1.15,2013-11-04 20:08:00,
2013-11-04 13:13:00,77.8,43.9,29.69,SW,225,5.0,-999.0,30,0.00,,,0.00,Wunderground v.1.15,2013-11-04 20:13:00,
2013-11-04 13:18:00,77.5,36.8,29.69,SW,225,6.0,-999.0,23,0.00,,,0.00,Wunderground v.1.15,2013-11-04 20:18:00,
2013-11-04 13:23:00,77.3,36.6,29.68,WNW,293,6.0,-999.0,23,0.00,,,0.00,Wunderground v.1.15,2013-11-04 20:23:00,
2013-11-04 13:28:00,76.9,37.3,29.68,West,270,7.0,-999.0,24,0.00,,,0.00,Wunderground v.1.15,2013-11-04 20:28:00,
2013-11-04 13:33:00,77.0,36.3,29.68,SW,225,4.0,-999.0,23,0.00,,,0.00,Wunderground v.1.15,2013-11-04 20:33:00,
2013-11-04 13:38:00,77.3,37.7,29.68,WSW,248,5.0,-999.0,24,0.00,,,0.00,Wunderground v.1.15,2013-11-04 20:38:00,
2013-11-04 13:43:00,77.2,36.5,29.68,West,270,5.0,-999.0,23,0.00,,,0.00,Wunderground v.1.15,2013-11-04 20:43:00,
2013-11-04 13:48:00,77.0,35.2,29.67,WNW,293,5.0,-999.0,22,0.00,,,0.00,Wunderground v.1.15,2013-11-04 20:48:00,
2013-11-04 13:53:00,76.9,37.3,29.67,SW,225,5.0,-999.0,24,0.00,,,0.00,Wunderground v.1.15,2013-11-04 20:53:00,
2013-11-04 13:58:00,77.1,35.3,29.67,West,270,4.0,-999.0,22,0.00,,,0.00,Wunderground v.1.15,2013-11-04 20:58:00,
2013-11-04 14:03:00,77.3,36.6,29.67,SW,225,5.0,-999.0,23,0.00,,,0.00,Wunderground v.1.15,2013-11-04 21:03:00,
2013-11-04 14:08:00,77.4,35.6,29.67,WSW,248,7.0,-999.0,22,0.00,,,0.00,Wunderground v.1.15,2013-11-04 21:08:00,
2013-11-04 14:13:00,77.4,35.6,29.66,SW,225,5.0,-999.0,22,0.00,,,0.00,Wunderground v.1.15,2013-11-04 21:13:00,
2013-11-04 14:18:00,77.4,36.7,29.66,West,270,4.0,-999.0,23,0.00,,,0.00,Wunderground v.1.15,2013-11-04 21:18:00,
2013-11-04 14:23:00,77.5,35.6,29.66,WNW,293,7.0,-999.0,22,0.00,,,0.00,Wunderground v.1.15,2013-11-04 21:23:00,
2013-11-04 14:28:00,77.3,35.5,29.66,WNW,293,5.0,-999.0,22,0.00,,,0.00,Wunderground v.1.15,2013-11-04 21:28:00,
2013-11-04 14:33:00,77.5,37.8,29.66,SW,225,6.0,-999.0,24,0.00,,,0.00,Wunderground v.1.15,2013-11-04 21:33:00,
2013-11-04 14:38:00,77.4,36.7,29.66,WSW,248,5.0,-999.0,23,0.00,,,0.00,Wunderground v.1.15,2013-11-04 21:38:00,
2013-11-04 14:43:00,77.3,34.3,29.66,NW,315,6.0,-999.0,21,0.00,,,0.00,Wunderground v.1.15,2013-11-04 21:43:00,
2013-11-04 14:48:00,77.3,36.6,29.66,WNW,293,5.0,-999.0,23,0.00,,,0.00,Wunderground v.1.15,2013-11-04 21:48:00,
2013-11-04 14:53:00,77.4,35.6,29.66,WSW,248,6.0,-999.0,22,0.00,,,0.00,Wunderground v.1.15,2013-11-04 21:53:00,
2013-11-04 14:58:00,77.4,35.6,29.66,WNW,293,4.0,-999.0,22,0.00,,,0.00,Wunderground v.1.15,2013-11-04 21:58:00,
2013-11-04 15:03:00,77.3,35.5,29.66,West,270,6.0,-999.0,22,0.00,,,0.00,Wunderground v.1.15,2013-11-04 22:03:00,
2013-11-04 15:08:00,77.1,35.3,29.67,West,270,6.0,-999.0,22,0.00,,,0.00,Wunderground v.1.15,2013-11-04 22:08:00,
2013-11-04 15:13:00,77.1,35.3,29.67,WNW,293,4.0,-999.0,22,0.00,,,0.00,Wunderground v.1.15,2013-11-04 22:13:00,
2013-11-04 15:18:00,77.5,35.6,29.66,WNW,293,3.0,-999.0,22,0.00,,,0.00,Wunderground v.1.15,2013-11-04 22:18:00,
2013-11-04 15:23:00,77.4,35.6,29.67,West,270,7.0,-999.0,22,0.00,,,0.00,Wunderground v.1.15,2013-11-04 22:23:00,
2013-11-04 15:28:00,77.5,35.6,29.67,SW,225,6.0,-999.0,22,0.00,,,0.00,Wunderground v.1.15,2013-11-04 22:28:00,
2013-11-04 15:33:00,77.4,37.8,29.67,SW,225,5.0,-999.0,24,0.00,,,0.00,Wunderground v.1.15,2013-11-04 22:33:00,
2013-11-04 15:38:00,77.8,34.7,29.67,West,270,6.0,-999.0,21,0.00,,,0.00,Wunderground v.1.15,2013-11-04 22:38:00,
2013-11-04 15:43:00,78.2,35.0,29.67,West,270,4.0,-999.0,21,0.00,,,0.00,Wunderground v.1.15,2013-11-04 22:43:00,
2013-11-04 15:48:00,78.2,35.0,29.67,WNW,293,7.0,-999.0,21,0.00,,,0.00,Wunderground v.1.15,2013-11-04 22:48:00,
2013-11-04 15:53:00,78.5,34.1,29.66,WNW,293,6.0,-999.0,20,0.00,,,0.00,Wunderground v.1.15,2013-11-04 22:53:00,
2013-11-04 15:58:00,78.5,34.1,29.67,WNW,293,7.0,-999.0,20,0.00,,,0.00,Wunderground v.1.15,2013-11-04 22:58:00,
2013-11-04 16:03:00,78.5,35.3,29.67,WNW,293,7.0,-999.0,21,0.00,,,0.00,Wunderground v.1.15,2013-11-04 23:03:00,
2013-11-04 16:08:00,78.5,34.1,29.67,WNW,293,7.0,-999.0,20,0.00,,,0.00,Wunderground v.1.15,2013-11-04 23:08:00,
2013-11-04 16:13:00,78.1,33.7,29.67,WNW,293,8.0,-999.0,20,0.00,,,0.00,Wunderground v.1.15,2013-11-04 23:13:00,
2013-11-04 16:18:00,78.0,34.9,29.67,West,270,7.0,-999.0,21,0.00,,,0.00,Wunderground v.1.15,2013-11-04 23:18:00,
2013-11-04 16:23:00,77.9,36.0,29.67,West,270,7.0,-999.0,22,0.00,,,0.00,Wunderground v.1.15,2013-11-04 23:23:00,
2013-11-04 16:28:00,77.8,35.9,29.67,WNW,293,8.0,-999.0,22,0.00,,,0.00,Wunderground v.1.15,2013-11-04 23:28:00,
2013-11-04 16:33:00,77.5,36.8,29.67,WNW,293,9.0,-999.0,23,0.00,,,0.00,Wunderground v.1.15,2013-11-04 23:33:00,
2013-11-04 16:38:00,77.3,36.6,29.67,WNW,293,10.0,-999.0,23,0.00,,,0.00,Wunderground v.1.15,2013-11-04 23:38:00,
2013-11-04 16:43:00,77.0,36.3,29.67,WNW,293,10.0,-999.0,23,0.00,,,0.00,Wunderground v.1.15,2013-11-04 23:43:00,
2013-11-04 16:48:00,76.9,38.4,29.67,WNW,293,9.0,-999.0,25,0.00,,,0.00,Wunderground v.1.15,2013-11-04 23:48:00,
2013-11-04 16:53:00,76.6,39.1,29.67,West,270,9.0,-999.0,26,0.00,,,0.00,Wunderground v.1.15,2013-11-04 23:53:00,
2013-11-04 16:58:00,76.4,39.0,29.67,WNW,293,10.0,-999.0,26,0.00,,,0.00,Wunderground v.1.15,2013-11-04 23:58:00,
2013-11-04 17:03:00,76.2,38.8,29.67,WNW,293,10.0,-999.0,26,0.00,,,0.00,Wunderground v.1.15,2013-11-05 00:03:00,
2013-11-04 17:08:00,76.0,38.6,29.67,WNW,293,10.0,-999.0,26,0.00,,,0.00,Wunderground v.1.15,2013-11-05 00:08:00,
2013-11-04 17:13:00,75.8,38.5,29.67,WNW,293,8.0,-999.0,26,0.00,,,0.00,Wunderground v.1.15,2013-11-05 00:13:00,
2013-11-04 17:18:00,75.6,37.3,29.67,West,270,9.0,-999.0,25,0.00,,,0.00,Wunderground v.1.15,2013-11-05 00:18:00,
2013-11-04 17:23:00,75.4,37.1,29.67,WNW,293,9.0,-999.0,25,0.00,,,0.00,Wunderground v.1.15,2013-11-05 00:23:00,
2013-11-04 17:28:00,75.1,36.9,29.67,West,270,7.0,-999.0,25,0.00,,,0.00,Wunderground v.1.15,2013-11-05 00:28:00,
2013-11-04 17:38:00,74.4,36.3,29.67,WNW,293,7.0,-999.0,25,0.00,,,0.00,Wunderground v.1.15,2013-11-05 00:38:00,
2013-11-04 17:43:00,74.2,36.1,29.67,WNW,293,8.0,-999.0,25,0.00,,,0.00,Wunderground v.1.15,2013-11-05 00:43:00,
2013-11-04 17:48:00,73.9,37.8,29.67,West,270,7.0,-999.0,27,0.00,,,0.00,Wunderground v.1.15,2013-11-05 00:48:00,
2013-11-04 17:53:00,73.7,37.6,29.68,West,270,7.0,-999.0,27,0.00,,,0.00,Wunderground v.1.15,2013-11-05 00:53:00,
2013-11-04 17:58:00,73.6,37.5,29.68,West,270,8.0,-999.0,27,0.00,,,0.00,Wunderground v.1.15,2013-11-05 00:58:00,
2013-11-04 18:03:00,73.4,38.3,29.68,West,270,7.0,-999.0,28,0.00,,,0.00,Wunderground v.1.15,2013-11-05 01:03:00,
2013-11-04 18:08:00,73.3,38.2,29.68,West,270,8.0,-999.0,28,0.00,,,0.00,Wunderground v.1.15,2013-11-05 01:08:00,
2013-11-04 18:13:00,73.3,38.2,29.68,West,270,8.0,-999.0,28,0.00,,,0.00,Wunderground v.1.15,2013-11-05 01:13:00,
2013-11-04 18:18:00,73.3,38.2,29.68,West,270,8.0,-999.0,28,0.00,,,0.00,Wunderground v.1.15,2013-11-05 01:18:00,
2013-11-04 18:23:00,73.3,38.2,29.68,West,270,8.0,-999.0,28,0.00,,,0.00,Wunderground v.1.15,2013-11-05 01:23:00,
2013-11-04 18:28:00,73.3,38.2,29.68,West,270,8.0,-999.0,28,0.00,,,0.00,Wunderground v.1.15,2013-11-05 01:28:00,
2013-11-04 18:33:00,-999.9,-99.9,-32.77,North,32767,-999.0,1.0,255,-99.99,,,0.00,Wunderground v.1.15,2013-11-05 01:33:00,
2013-11-04 18:38:00,73.3,38.2,29.68,West,270,8.0,-999.0,28,0.00,,,0.00,Wunderground v.1.15,2013-11-05 01:38:00,
2013-11-04 18:43:00,73.3,38.2,29.68,West,270,8.0,-999.0,28,0.00,,,0.00,Wunderground v.1.15,2013-11-05 01:43:00,
2013-11-04 18:44:00,71.2,41.4,29.70,WNW,293,11.0,11.0,34,0.00,,,0.00,Wunderground v.1.15,2013-11-05 01:44:00,
2013-11-04 18:48:00,73.3,38.2,29.68,West,270,8.0,-999.0,28,0.00,,,0.00,Wunderground v.1.15,2013-11-05 01:48:00,
2013-11-04 18:50:00,71.0,42.0,29.71,WNW,285,9.0,11.0,35,0.00,,,0.00,Wunderground v.1.15,2013-11-05 01:50:00,
2013-11-04 18:53:00,73.3,38.2,29.68,West,270,8.0,-999.0,28,0.00,,,0.00,Wunderground v.1.15,2013-11-05 01:53:00,
2013-11-04 18:55:00,70.8,41.8,29.71,WNW,288,8.0,9.0,35,0.00,,,0.00,Wunderground v.1.15,2013-11-05 01:55:00,
2013-11-04 18:58:00,73.3,38.2,29.68,West,270,8.0,-999.0,28,0.00,,,0.00,Wunderground v.1.15,2013-11-05 01:58:00,
2013-11-04 19:02:00,70.8,41.8,29.72,WNW,285,9.0,9.0,35,0.00,,,0.00,Wunderground v.1.15,2013-11-05 02:02:00,
2013-11-04 19:03:00,73.3,38.2,29.68,West,270,8.0,-999.0,28,0.00,,,0.00,Wunderground v.1.15,2013-11-05 02:03:00,
2013-11-04 19:07:00,70.8,41.8,29.72,WNW,285,8.0,10.0,35,0.00,,,0.00,Wunderground v.1.15,2013-11-05 02:07:00,
2013-11-04 19:08:00,73.3,38.2,29.68,West,270,8.0,-999.0,28,0.00,,,0.00,Wunderground v.1.15,2013-11-05 02:08:00,
2013-11-04 19:13:00,70.4,41.4,29.72,WNW,288,10.0,13.0,35,0.00,,,0.00,Wunderground v.1.15,2013-11-05 02:13:00,
2013-11-04 19:18:00,73.3,38.2,29.68,West,270,8.0,-999.0,28,0.00,,,0.00,Wunderground v.1.15,2013-11-05 02:18:00,
2013-11-04 19:19:00,70.1,41.2,29.72,WNW,297,10.0,13.0,35,0.00,,,0.00,Wunderground v.1.15,2013-11-05 02:19:00,
2013-11-04 19:23:00,73.3,38.2,29.68,West,270,8.0,-999.0,28,0.00,,,0.00,Wunderground v.1.15,2013-11-05 02:23:00,
2013-11-04 19:24:00,69.9,41.7,29.72,West,276,10.0,14.0,36,0.00,,,0.00,Wunderground v.1.15,2013-11-05 02:24:00,
2013-11-04 19:28:00,73.3,38.2,29.68,West,270,8.0,-999.0,28,0.00,,,0.00,Wunderground v.1.15,2013-11-05 02:28:00,
2013-11-04 19:30:00,69.7,42.3,29.72,West,274,11.0,14.0,37,0.00,,,0.00,Wunderground v.1.15,2013-11-05 02:30:00,
2013-11-04 19:33:00,73.3,38.2,29.68,West,270,8.0,-999.0,28,0.00,,,0.00,Wunderground v.1.15,2013-11-05 02:33:00,
2013-11-04 19:35:00,69.5,41.4,29.73,WNW,290,10.0,15.0,36,0.00,,,0.00,Wunderground v.1.15,2013-11-05 02:35:00,
2013-11-04 19:38:00,73.3,38.2,29.68,West,270,8.0,-999.0,28,0.00,,,0.00,Wunderground v.1.15,2013-11-05 02:38:00,
2013-11-04 19:41:00,69.4,42.0,29.73,WNW,302,10.0,15.0,37,0.00,,,0.00,Wunderground v.1.15,2013-11-05 02:41:00,
2013-11-04 19:43:00,73.3,38.2,29.68,West,270,8.0,-999.0,28,0.00,,,0.00,Wunderground v.1.15,2013-11-05 02:43:00,
2013-11-04 19:47:00,69.3,41.9,29.73,West,278,10.0,13.0,37,0.00,,,0.00,Wunderground v.1.15,2013-11-05 02:47:00,
2013-11-04 19:48:00,73.3,38.2,29.68,West,270,8.0,-999.0,28,0.00,,,0.00,Wunderground v.1.15,2013-11-05 02:48:00,
2013-11-04 19:52:00,68.9,42.2,29.73,WNW,295,8.0,10.0,38,0.00,,,0.00,Wunderground v.1.15,2013-11-05 02:52:00,
2013-11-04 19:53:00,73.3,38.2,29.68,West,270,8.0,-999.0,28,0.00,,,0.00,Wunderground v.1.15,2013-11-05 02:53:00,
2013-11-04 19:58:00,68.5,41.9,29.73,WNW,289,7.0,10.0,38,0.00,,,0.00,Wunderground v.1.15,2013-11-05 02:58:00,
2013-11-04 20:03:00,68.3,42.4,29.74,WNW,297,7.0,8.0,39,0.00,,,0.00,Wunderground v.1.15,2013-11-05 03:03:00,
2013-11-04 20:08:00,73.3,38.2,29.68,West,270,8.0,-999.0,28,0.00,,,0.00,Wunderground v.1.15,2013-11-05 03:08:00,
2013-11-04 20:09:00,68.2,42.3,29.74,WSW,239,6.0,8.0,39,0.00,,,0.00,Wunderground v.1.15,2013-11-05 03:09:00,
2013-11-04 20:13:00,73.3,38.2,29.68,West,270,8.0,-999.0,28,0.00,,,0.00,Wunderground v.1.15,2013-11-05 03:13:00,
2013-11-04 20:14:00,68.4,42.5,29.74,WNW,283,7.0,12.0,39,0.00,,,0.00,Wunderground v.1.15,2013-11-05 03:14:00,
2013-11-04 20:18:00,73.3,38.2,29.68,West,270,8.0,-999.0,28,0.00,,,0.00,Wunderground v.1.15,2013-11-05 03:18:00,
2013-11-04 20:19:00,68.6,42.0,29.74,West,271,10.0,12.0,38,0.00,,,0.00,Wunderground v.1.15,2013-11-05 03:19:00,
2013-11-04 20:23:00,73.3,38.2,29.68,West,270,8.0,-999.0,28,0.00,,,0.00,Wunderground v.1.15,2013-11-05 03:23:00,
2013-11-04 20:24:00,68.6,43.3,29.74,West,268,10.0,10.0,40,0.00,,,0.00,Wunderground v.1.15,2013-11-05 03:24:00,
2013-11-04 20:28:00,73.3,38.2,29.68,West,270,8.0,-999.0,28,0.00,,,0.00,Wunderground v.1.15,2013-11-05 03:28:00,
2013-11-04 20:30:00,68.3,42.4,29.74,West,259,7.0,10.0,39,0.00,,,0.00,Wunderground v.1.15,2013-11-05 03:30:00,
2013-11-04 20:33:00,73.3,38.2,29.68,West,270,8.0,-999.0,28,0.00,,,0.00,Wunderground v.1.15,2013-11-05 03:33:00,
2013-11-04 20:36:00,68.3,42.4,29.74,WNW,285,8.0,12.0,39,0.00,,,0.00,Wunderground v.1.15,2013-11-05 03:36:00,
2013-11-04 20:38:00,73.3,38.2,29.68,West,270,8.0,-999.0,28,0.00,,,0.00,Wunderground v.1.15,2013-11-05 03:38:00,
2013-11-04 20:41:00,68.3,41.7,29.75,West,280,10.0,12.0,38,0.00,,,0.00,Wunderground v.1.15,2013-11-05 03:41:00,
2013-11-04 20:43:00,73.3,38.2,29.68,West,270,8.0,-999.0,28,0.00,,,0.00,Wunderground v.1.15,2013-11-05 03:43:00,
2013-11-04 20:46:00,68.2,42.3,29.75,WNW,283,10.0,13.0,39,0.00,,,0.00,Wunderground v.1.15,2013-11-05 03:46:00,
2013-11-04 20:48:00,73.3,38.2,29.68,West,270,8.0,-999.0,28,0.00,,,0.00,Wunderground v.1.15,2013-11-05 03:48:00,
2013-11-04 20:52:00,68.1,42.2,29.75,WNW,283,9.0,9.0,39,0.00,,,0.00,Wunderground v.1.15,2013-11-05 03:52:00,
2013-11-04 20:53:00,73.3,38.2,29.68,West,270,8.0,-999.0,28,0.00,,,0.00,Wunderground v.1.15,2013-11-05 03:53:00,
2013-11-04 20:58:00,68.1,41.5,29.75,WNW,283,10.0,10.0,38,0.00,,,0.00,Wunderground v.1.15,2013-11-05 03:58:00,
2013-11-04 21:03:00,68.1,41.5,29.75,WNW,284,11.0,14.0,38,0.00,,,0.00,Wunderground v.1.15,2013-11-05 04:03:00,
2013-11-04 21:08:00,73.3,38.2,29.68,West,270,8.0,-999.0,28,0.00,,,0.00,Wunderground v.1.15,2013-11-05 04:08:00,
2013-11-04 21:09:00,67.9,41.3,29.75,WNW,293,10.0,14.0,38,0.00,,,0.00,Wunderground v.1.15,2013-11-05 04:09:00,
2013-11-04 21:13:00,73.3,38.2,29.68,West,270,8.0,-999.0,28,0.00,,,0.00,Wunderground v.1.15,2013-11-05 04:13:00,
2013-11-04 21:14:00,67.8,41.9,29.75,WNW,292,7.0,8.0,39,0.00,,,0.00,Wunderground v.1.15,2013-11-05 04:14:00,
2013-11-04 21:18:00,73.3,38.2,29.68,West,270,8.0,-999.0,28,0.00,,,0.00,Wunderground v.1.15,2013-11-05 04:18:00,
2013-11-04 21:20:00,67.5,41.7,29.76,NW,319,4.0,8.0,39,0.00,,,0.00,Wunderground v.1.15,2013-11-05 04:20:00,
2013-11-04 21:23:00,73.3,38.2,29.68,West,270,8.0,-999.0,28,0.00,,,0.00,Wunderground v.1.15,2013-11-05 04:23:00,
2013-11-04 21:26:00,67.2,41.4,29.76,NW,312,2.0,4.0,39,0.00,,,0.00,Wunderground v.1.15,2013-11-05 04:26:00,
2013-11-04 21:28:00,73.3,38.2,29.68,West,270,8.0,-999.0,28,0.00,,,0.00,Wunderground v.1.15,2013-11-05 04:28:00,
2013-11-04 21:32:00,66.9,41.1,29.76,WNW,295,2.0,2.0,39,0.00,,,0.00,Wunderground v.1.15,2013-11-05 04:32:00,
2013-11-04 21:33:00,73.3,38.2,29.68,West,270,8.0,-999.0,28,0.00,,,0.00,Wunderground v.1.15,2013-11-05 04:33:00,
2013-11-04 21:37:00,66.8,41.7,29.76,West,276,1.0,2.0,40,0.00,,,0.00,Wunderground v.1.15,2013-11-05 04:37:00,
2013-11-04 21:38:00,73.3,38.2,29.68,West,270,8.0,-999.0,28,0.00,,,0.00,Wunderground v.1.15,2013-11-05 04:38:00,
2013-11-04 21:43:00,66.3,41.2,29.76,West,275,0.0,1.0,40,0.00,,,0.00,Wunderground v.1.15,2013-11-05 04:43:00,
2013-11-04 21:48:00,73.3,38.2,29.68,West,270,8.0,-999.0,28,0.00,,,0.00,Wunderground v.1.15,2013-11-05 04:48:00,
2013-11-04 21:49:00,65.5,41.2,29.77,SE,137,0.0,1.0,41,0.00,,,0.00,Wunderground v.1.15,2013-11-05 04:49:00,
2013-11-04 21:53:00,73.3,38.2,29.68,West,270,8.0,-999.0,28,0.00,,,0.00,Wunderground v.1.15,2013-11-05 04:53:00,
2013-11-04 21:54:00,64.6,41.6,29.77,SE,136,0.0,1.0,43,0.00,,,0.00,Wunderground v.1.15,2013-11-05 04:54:00,
2013-11-04 21:58:00,73.3,38.2,29.68,West,270,8.0,-999.0,28,0.00,,,0.00,Wunderground v.1.15,2013-11-05 04:58:00,
2013-11-04 21:59:00,64.0,41.6,29.77,NE,50,1.0,3.0,44,0.00,,,0.00,Wunderground v.1.15,2013-11-05 04:59:00,
2013-11-04 22:02:00,63.4,41.1,29.77,NE,49,1.0,4.0,44,0.00,,,0.00,Wunderground v.1.15,2013-11-05 05:02:00,
2013-11-04 22:03:00,73.3,38.2,29.68,West,270,8.0,-999.0,28,0.00,,,0.00,Wunderground v.1.15,2013-11-05 05:03:00,
2013-11-04 22:04:00,63.0,42.4,29.77,ENE,68,1.0,4.0,47,0.00,,,0.00,Wunderground v.1.15,2013-11-05 05:04:00,
2013-11-04 22:05:00,62.7,42.7,29.77,North,8,1.0,4.0,48,0.00,,,0.00,Wunderground v.1.15,2013-11-05 05:05:00,
2013-11-04 22:06:00,62.4,43.0,29.77,NNE,30,2.0,5.0,49,0.00,,,0.00,Wunderground v.1.15,2013-11-05 05:06:00,
2013-11-04 22:07:00,62.3,42.3,29.77,NE,46,2.0,5.0,48,0.00,,,0.00,Wunderground v.1.15,2013-11-05 05:07:00,
2013-11-04 22:08:00,73.3,38.2,29.68,West,270,8.0,-999.0,28,0.00,,,0.00,Wunderground v.1.15,2013-11-05 05:08:00,
2013-11-04 22:10:00,62.3,42.3,29.78,NE,55,3.0,5.0,48,0.00,,,0.00,Wunderground v.1.15,2013-11-05 05:10:00,
2013-11-04 22:13:00,73.3,38.2,29.68,West,270,8.0,-999.0,28,0.00,,,0.00,Wunderground v.1.15,2013-11-05 05:13:00,
2013-11-04 22:16:00,61.8,42.4,29.78,NE,44,3.0,3.0,49,0.00,,,0.00,Wunderground v.1.15,2013-11-05 05:16:00,
2013-11-04 22:18:00,73.3,38.2,29.68,West,270,8.0,-999.0,28,0.00,,,0.00,Wunderground v.1.15,2013-11-05 05:18:00,
2013-11-04 22:22:00,61.8,42.4,29.78,ENE,68,3.0,3.0,49,0.00,,,0.00,Wunderground v.1.15,2013-11-05 05:22:00,
2013-11-04 22:23:00,73.3,38.2,29.68,West,270,8.0,-999.0,28,0.00,,,0.00,Wunderground v.1.15,2013-11-05 05:23:00,
2013-11-04 22:28:00,61.5,42.2,29.78,East,86,2.0,3.0,49,0.00,,,0.00,Wunderground v.1.15,2013-11-05 05:28:00,
2013-11-04 22:33:00,73.3,38.2,29.68,West,270,8.0,-999.0,28,0.00,,,0.00,Wunderground v.1.15,2013-11-05 05:33:00,
2013-11-04 22:34:00,61.1,42.8,29.79,NNE,31,1.0,1.0,51,0.00,,,0.00,Wunderground v.1.15,2013-11-05 05:34:00,
2013-11-04 22:38:00,73.3,38.2,29.68,West,270,8.0,-999.0,28,0.00,,,0.00,Wunderground v.1.15,2013-11-05 05:38:00,
2013-11-04 22:40:00,61.1,42.3,29.79,NNE,31,0.0,1.0,50,0.00,,,0.00,Wunderground v.1.15,2013-11-05 05:40:00,
2013-11-04 22:43:00,73.3,38.2,29.68,West,270,8.0,-999.0,28,0.00,,,0.00,Wunderground v.1.15,2013-11-05 05:43:00,
2013-11-04 22:45:00,61.2,42.9,29.79,West,267,0.0,1.0,51,0.00,,,0.00,Wunderground v.1.15,2013-11-05 05:45:00,
2013-11-04 22:48:00,73.3,38.2,29.68,West,270,8.0,-999.0,28,0.00,,,0.00,Wunderground v.1.15,2013-11-05 05:48:00,
2013-11-04 22:51:00,61.8,41.9,29.79,WSW,243,1.0,3.0,48,0.00,,,0.00,Wunderground v.1.15,2013-11-05 05:51:00,
2013-11-04 22:53:00,73.3,38.2,29.68,West,270,8.0,-999.0,28,0.00,,,0.00,Wunderground v.1.15,2013-11-05 05:53:00,
2013-11-04 22:56:00,62.8,41.7,29.79,SW,217,2.0,4.0,46,0.00,,,0.00,Wunderground v.1.15,2013-11-05 05:56:00,
2013-11-04 22:58:00,73.3,38.2,29.68,West,270,8.0,-999.0,28,0.00,,,0.00,Wunderground v.1.15,2013-11-05 05:58:00,
2013-11-04 23:02:00,63.1,43.1,29.79,SW,224,2.0,2.0,48,0.00,,,0.00,Wunderground v.1.15,2013-11-05 06:02:00,
2013-11-04 23:03:00,73.3,38.2,29.68,West,270,8.0,-999.0,28,0.00,,,0.00,Wunderground v.1.15,2013-11-05 06:03:00,
2013-11-04 23:07:00,63.3,42.7,29.79,SW,217,3.0,4.0,47,0.00,,,0.00,Wunderground v.1.15,2013-11-05 06:07:00,
2013-11-04 23:08:00,73.3,38.2,29.68,West,270,8.0,-999.0,28,0.00,,,0.00,Wunderground v.1.15,2013-11-05 06:08:00,
2013-11-04 23:13:00,61.7,41.3,29.79,WSW,237,3.0,3.0,47,0.00,,,0.00,Wunderground v.1.15,2013-11-05 06:13:00,
2013-11-04 23:18:00,73.3,38.2,29.68,West,270,8.0,-999.0,28,0.00,,,0.00,Wunderground v.1.15,2013-11-05 06:18:00,
2013-11-04 23:19:00,61.2,39.7,29.79,SSW,208,1.0,3.0,45,0.00,,,0.00,Wunderground v.1.15,2013-11-05 06:19:00,
2013-11-04 23:23:00,73.3,38.2,29.68,West,270,8.0,-999.0,28,0.00,,,0.00,Wunderground v.1.15,2013-11-05 06:23:00,
2013-11-04 23:25:00,60.6,39.1,29.80,SSE,160,1.0,1.0,45,0.00,,,0.00,Wunderground v.1.15,2013-11-05 06:25:00,
2013-11-04 23:28:00,73.3,38.2,29.68,West,270,8.0,-999.0,28,0.00,,,0.00,Wunderground v.1.15,2013-11-05 06:28:00,
2013-11-04 23:30:00,60.3,42.1,29.80,WSW,249,1.0,2.0,51,0.00,,,0.00,Wunderground v.1.15,2013-11-05 06:30:00,
2013-11-04 23:33:00,73.3,38.2,29.68,West,270,8.0,-999.0,28,0.00,,,0.00,Wunderground v.1.15,2013-11-05 06:33:00,
2013-11-04 23:36:00,60.1,41.4,29.80,WSW,252,1.0,2.0,50,0.00,,,0.00,Wunderground v.1.15,2013-11-05 06:36:00,
2013-11-04 23:38:00,73.3,38.2,29.68,West,270,8.0,-999.0,28,0.00,,,0.00,Wunderground v.1.15,2013-11-05 06:38:00,
2013-11-04 23:42:00,60.9,40.0,29.80,SW,235,1.0,1.0,46,0.00,,,0.00,Wunderground v.1.15,2013-11-05 06:42:00,
2013-11-04 23:43:00,73.3,38.2,29.68,West,270,8.0,-999.0,28,0.00,,,0.00,Wunderground v.1.15,2013-11-05 06:43:00,
2013-11-04 23:47:00,61.1,40.1,29.80,West,275,1.0,3.0,46,0.00,,,0.00,Wunderground v.1.15,2013-11-05 06:47:00,
2013-11-04 23:48:00,73.3,38.2,29.68,West,270,8.0,-999.0,28,0.00,,,0.00,Wunderground v.1.15,2013-11-05 06:48:00,
2013-11-04 23:53:00,60.7,38.1,29.80,East,85,0.0,1.0,43,0.00,,,0.00,Wunderground v.1.15,2013-11-05 06:53:00,
2013-11-04 23:58:00,73.3,38.2,29.68,West,270,8.0,-999.0,28,0.00,,,0.00,Wunderground v.1.15,2013-11-05 06:58:00,
2013-11-04 23:59:00,61.1,36.6,29.80,NE,44,1.0,2.0,40,0.00,,,0.00,Wunderground v.1.15,2013-11-05 06:59:00,